User: anonymous   Login
Location: Unspecified
(0.0000°N, 0.0000°E)
Time: 18:31:28
(UTC+00:00)
Language:

Tubsat - Orbit

View from above orbital plane
View from above orbital plane
View from above satellite
View from above satellite

Ground track
Ground track

The orbit data is extracted from the following two-line orbital elements,

1 25757U 99029B   18052.79048876 -.00000027 +00000-0 +46958-5 0  9997
2 25757 098.4100 329.7615 0012867 257.9791 101.9972 14.51376809992673
Epoch (UTC): 21 February 2018 18:58:18
Eccentricity: 0.0012867
inclination: 98.4100°
perigee height: 712 km
apogee height: 730 km
right ascension of ascending node: 329.7615°
argument of perigee: 257.9791°
revolutions per day: 14.51376809
mean anomaly at epoch: 101.9972°
orbit number at epoch: 99267

The dashed part of the orbit path shows where the satellite is in the earth's shadow,  

DLR